Location: Saint-Usage
(47.1052°N, 5.2587°E)
Time: 20:50:51
(UTC+02:00)

X-37B - Pass Details

Date: 02 October 2021
Orbit: 385 x 389 km, 45.0° (Epoch: 13 October)

Event Time Altitude Azimuth Distance (km) Brightness Sun altitude
Exits shadow 06:52:50 12° 251° (WSW) 1,313 2.6 -8.7°
Maximum altitude 06:54:52 19° 208° (SSW) 987 2.3 -8.4°
Drops below altitude 10° 06:57:13 10° 159° (SSE) 1,408 3.6 -8.0°
Sets 06:59:39 0° 141° (SE) 2,260 5.0 -7.6°
